Tracking 27401 objects as of 3-Jun-2023
HD Live streaming from Space Station
objects crossing your sky now

ATLAS 5 CENTAUR DEB

Track ATLAS 5 CENTAUR DEB now!


NORAD ID: 44016
Int'l Code: 2014-055BX
Perigee: 8,727.4 km
Apogee: 34,821.1 km
Inclination: 20.7 °
Period: 783.2 minutes
Semi major axis: 28145 km
RCS: Unknown
Launch date: September 17, 2014
Source: United States (US)
Launch site: AIR FORCE EASTERN TEST RANGE (AFETR)

Note: This is SATELLITE DEBRIS
Your satellite tracking list
Your tracking list is empty




NASA's NSSDC Master Catalog

Two Line Element Set (TLE):
1 44016U 14055BX  23153.43898166 -.00000079  00000-0  00000-0 0  9996
2 44016  20.6658 257.4473 4635543 324.2467  12.1990  1.83863414 30973
Source of the keplerian elements: AFSPC